EW4055 Weather Reports


Display with metric or nautical units.
time (UTC)temp
F
wind
direction
speed
MPH
gust
MPH
rain 1hr
in
rain 24hr
in
rain mn
in
humidity
%
barometer
mb
20260509130111 72 27 5.0 11.0 0.00 0.00 0.00 54 1016.8
20260509125103 72 80 6.0 12.0 0.00 0.00 0.00 56 1016.9
20260509124059 73 76 6.0 10.0 0.00 0.00 0.00 53 1017.1
20260509123102 72 55 4.0 7.0 0.00 0.00 0.00 56 1016.9
20260509122739 72 0 6.0 9.0 0.00 0.00 0.00 56 1017.1
20260509121103 72 55 6.0 10.0 0.00 0.00 0.00 56 1017.2
20260509120114 72 63 5.0 10.0 0.00 0.00 0.00 58 1017.2
20260509115601 71 34 9.0 12.0 0.00 0.00 0.00 56 1017.2
20260509115223 71 61 7.0 11.0 0.00 0.00 0.00 57 1017.2
20260509113101 71 86 6.0 10.0 0.00 0.00 0.00 59 1017.1
20260509112903 71 27 7.0 13.0 0.00 0.00 0.00 57 1017.2
20260509111059 71 44 7.0 13.0 0.00 0.00 0.00 57 1017.3
20260509110107 72 110 6.0 11.0 0.00 0.00 0.00 57 1017.2
20260509105051 71 8 8.0 14.0 0.00 0.00 0.00 57 1017.3
20260509104746 72 20 6.0 12.0 0.00 0.00 0.00 59 1017.4
20260509103044 72 20 5.0 11.0 0.00 0.00 0.00 56 1017.4
20260509102051 72 66 3.0 7.0 0.00 0.00 0.00 50 1017.5
20260509101048 73 92 4.0 9.0 0.00 0.00 0.00 49 1017.6
20260509100127 73 49 2.0 6.0 0.00 0.00 0.00 49 1017.4
20260509095038 72 338 3.0 6.0 0.00 0.00 0.00 52 1017.4
20260509094040 72 73 5.0 9.0 0.00 0.00 0.00 51 1017.5
20260509093040 71 305 0.0 7.0 0.00 0.00 0.00 49 1017.5
20260509092040 71 80 1.0 7.0 0.00 0.00 0.00 50 1017.5
20260509091039 71 357 2.0 4.0 0.00 0.00 0.00 54 1017.6
20260509090052 70 333 2.0 7.0 0.00 0.00 0.00 54 1017.5
20260509085725 69 55 4.0 6.0 0.00 0.00 0.00 52 1017.6
20260509085229 69 58 2.0 6.0 0.00 0.00 0.00 56 1017.5
20260509083025 69 0 4.0 7.0 0.00 0.00 0.00 52 1017.6
20260509082025 69 8 3.0 6.0 0.00 0.00 0.00 54 1017.7
20260509081751 69 358 4.0 7.0 0.00 0.00 0.00 58 1017.8
20260509080104 68 0 2.0 5.0 0.00 0.00 0.00 61 1017.9
20260509075026 67 290 2.0 5.0 0.00 0.00 0.00 63 1017.9
20260509074024 65 309 2.0 4.0 0.00 0.00 0.00 66 1017.9
20260509073019 65 306 2.0 4.0 0.00 0.00 0.00 68 1017.9
20260509072016 64 281 2.0 4.0 0.00 0.00 0.00 72 1017.8
20260509071737 63 303 2.0 5.0 0.00 0.00 0.00 76 1017.7
20260509070011 62 281 0.0 4.0 0.00 0.00 0.00 79 1017.7
20260509065001 61 309 2.0 3.0 0.00 0.00 0.00 81 1017.7
20260509064706 60 288 2.0 2.0 0.00 0.00 0.00 81 1017.7
20260509063003 60 272 1.0 4.0 0.00 0.00 0.00 82 1017.8
20260509062005 59 279 2.0 4.0 0.00 0.00 0.00 83 1017.7
20260509061003 58 283 2.0 5.0 0.00 0.00 0.00 84 1017.8
20260509060003 57 292 2.0 4.0 0.00 0.00 0.00 85 1017.8
20260509055002 56 290 2.0 4.0 0.00 0.00 0.00 85 1017.8
20260509054000 56 264 2.0 4.0 0.00 0.00 0.00 86 1017.6
20260509052959 55 248 2.0 5.0 0.00 0.00 0.00 87 1017.5
20260509052002 55 286 2.0 4.0 0.00 0.00 0.00 87 1017.4
20260509051000 54 264 2.0 3.0 0.00 0.00 0.00 87 1017.3
20260509045958 54 265 2.0 5.0 0.00 0.00 0.00 86 1017.3
20260509044959 55 275 3.0 6.0 0.00 0.00 0.00 86 1017.3
20260509044003 55 268 3.0 4.0 0.00 0.00 0.00 87 1017.4
20260509043722 55 278 2.0 4.0 0.00 0.00 0.00 87 1017.2
20260509042002 55 282 3.0 4.0 0.00 0.00 0.00 86 1016.8
20260509040959 55 309 3.0 5.0 0.00 0.00 0.00 86 1016.8
20260509040727 55 296 3.0 5.0 0.00 0.00 0.00 86 1016.9
20260509035738 55 296 4.0 6.0 0.00 0.00 0.00 87 1016.9
20260509033959 55 303 3.0 5.0 0.00 0.00 0.00 86 1016.8
20260509033000 55 300 4.0 6.0 0.00 0.00 0.00 87 1016.7
20260509032439 55 298 4.0 4.0 0.00 0.00 0.00 87 1016.8
20260509032118 55 290 3.0 5.0 0.00 0.00 0.00 87 1016.9
20260509025959 55 307 3.0 4.0 0.00 0.00 0.00 87 1016.7
20260509024957 55 307 1.0 3.0 0.00 0.00 0.00 86 1016.8
20260509023958 55 307 2.0 3.0 0.00 0.00 0.00 86 1016.7
20260509023000 55 307 1.0 3.0 0.00 0.00 0.00 85 1016.7
20260509021959 55 307 2.0 3.0 0.00 0.00 0.00 85 1016.7
20260509020954 56 307 2.0 3.0 0.00 0.00 0.00 85 1016.7
20260509015956 56 307 3.0 5.0 0.00 0.00 0.00 85 1016.6
20260509014957 56 290 3.0 4.0 0.00 0.00 0.00 85 1016.6
20260509014703 55 272 2.0 4.0 0.00 0.00 0.00 85 1016.6
20260509013717 55 275 2.0 2.0 0.00 0.00 0.00 86 1016.6
20260509011955 55 281 1.0 3.0 0.00 0.00 0.00 85 1016.4
20260509010959 55 285 3.0 4.0 0.00 0.00 0.00 85 1016.4
20260509005955 56 272 2.0 2.0 0.00 0.00 0.00 85 1016.3
20260509004955 56 272 1.0 4.0 0.00 0.00 0.00 85 1016.4
20260509003955 56 265 2.0 3.0 0.00 0.00 0.00 85 1016.4
20260509003724 56 279 2.0 4.0 0.00 0.00 0.00 85 1016.5
20260509001956 56 290 2.0 3.0 0.00 1.01 0.00 85 1016.5
20260509001418 56 268 2.0 4.0 0.00 1.01 0.00 85 1016.6
20260509001111 56 275 2.0 3.0 0.00 1.01 0.00 85 1016.6
20260508234952 56 289 2.0 3.0 0.00 1.01 0.00 84 1016.6
20260508233951 56 289 2.0 5.0 0.00 1.01 0.00 84 1016.6
20260508232950 56 278 3.0 5.0 0.00 1.01 0.00 84 1016.7
20260508231948 57 285 1.0 3.0 0.00 1.01 0.00 83 1016.8
20260508230950 57 293 2.0 3.0 0.00 1.01 0.00 82 1016.8
20260508225947 57 289 1.0 3.0 0.00 1.01 0.00 82 1016.8
20260508224942 58 38 0.0 1.0 0.00 1.01 0.00 82 1016.8
20260508223944 58 38 0.0 1.0 0.00 1.01 0.00 82 1016.8
20260508222939 58 38 0.0 0.0 0.00 1.01 0.00 83 1016.8
20260508221946 58 38 0.0 0.0 0.00 1.01 0.00 83 1016.8
20260508220941 58 38 0.0 1.0 0.00 1.01 0.00 82 1016.9
20260508215942 58 38 1.0 2.0 0.00 1.01 1.01 82 1016.8
20260508214943 58 38 0.0 2.0 0.00 1.01 1.01 82 1016.9
20260508213935 58 38 1.0 2.0 0.00 1.01 1.01 82 1016.9
20260508212935 58 38 0.0 0.0 0.00 1.01 1.01 82 1016.9
20260508211935 58 38 0.0 0.0 0.00 1.01 1.01 82 1016.9
20260508210938 59 38 0.0 0.0 0.00 1.01 1.01 82 1016.8
20260508205934 59 38 0.0 0.0 0.00 1.01 1.01 81 1016.8
20260508204934 59 38 0.0 1.0 0.00 1.01 1.01 80 1016.8
20260508203937 59 38 0.0 0.0 0.00 1.01 1.01 81 1016.8
20260508202933 59 38 1.0 2.0 0.00 1.01 1.01 80 1016.8
20260508201931 59 38 1.0 2.0 0.00 1.01 1.01 80 1016.7
20260508200932 59 38 0.0 1.0 0.00 1.01 1.01 80 1016.7
20260508195934 59 38 0.0 0.0 0.00 1.01 1.01 79 1016.6
20260508194932 60 38 0.0 0.0 0.00 1.01 1.01 80 1016.6
20260508193932 60 38 0.0 1.0 0.00 1.01 1.01 79 1016.4
20260508193704 60 38 1.0 2.0 0.00 1.01 1.01 79 1016.3
20260508191932 60 38 1.0 2.0 0.00 1.01 1.01 78 1016.1
20260508191428 60 38 1.0 2.0 0.00 1.01 1.01 77 1015.9
20260508191059 60 38 1.0 3.0 0.00 1.01 1.01 78 1016.0
20260508184934 60 38 1.0 3.0 0.00 1.01 1.01 76 1015.8
20260508183932 61 8 2.0 3.0 0.00 1.01 1.01 75 1015.6
20260508182932 61 52 2.0 4.0 0.00 1.01 1.01 74 1015.5
20260508181934 61 24 1.0 3.0 0.00 1.01 1.01 73 1015.3
20260508180936 61 56 2.0 4.0 0.00 1.01 1.01 73 1015.3
20260508175928 62 8 2.0 3.0 0.00 1.01 1.01 72 1015.4
20260508174925 62 0 2.0 4.0 0.00 1.01 1.01 71 1015.2
20260508174710 62 0 2.0 4.0 0.00 1.01 1.01 71 1015.2
20260508172924 62 0 2.0 4.0 0.00 1.01 1.01 71 1015.1
20260508172706 62 4 2.0 4.0 0.00 1.01 1.01 70 1015.0
20260508170924 63 0 2.0 4.0 0.00 1.01 1.01 69 1015.0
20260508165919 63 0 2.0 3.0 0.00 1.01 1.01 70 1014.9
20260508164921 63 54 1.0 3.0 0.00 1.01 1.01 70 1014.9
20260508163916 63 48 2.0 5.0 0.00 1.01 1.01 69 1014.9
20260508162919 64 45 2.0 5.0 0.00 1.01 1.01 68 1014.9
20260508161918 64 68 3.0 7.0 0.00 1.01 1.01 69 1014.9
20260508161712 64 63 3.0 7.0 0.00 1.01 1.01 70 1014.9
20260508155914 64 34 5.0 7.0 0.00 1.01 1.01 70 1015.0
20260508154912 64 6 4.0 10.0 0.00 1.01 1.01 69 1015.1
20260508154246 64 8 5.0 10.0 0.00 1.01 1.01 67 1015.1
20260508154230 64 44 6.0 10.0 0.00 1.01 1.01 68 1015.0
20260508154005 64 48 6.0 11.0 0.00 1.01 1.01 69 1014.9
20260508150913 65 63 4.0 9.0 0.00 1.01 1.01 67 1015.0
20260508145903 65 52 5.0 9.0 0.00 1.01 1.01 66 1014.9
20260508144911 66 73 5.0 12.0 0.00 1.01 1.01 68 1015.0
20260508143908 66 0 5.0 7.0 0.00 1.01 1.01 67 1015.0
20260508142904 66 16 4.0 7.0 0.00 1.01 1.01 66 1015.0
20260508141904 66 56 5.0 10.0 0.00 1.01 1.01 63 1014.9
20260508140904 67 85 6.0 12.0 0.00 1.01 1.01 62 1014.8
20260508135907 68 25 8.0 15.0 0.00 1.01 1.01 62 1014.7
20260508134906 68 47 6.0 13.0 0.00 1.01 1.01 64 1014.8
20260508133905 68 30 5.0 12.0 0.00 1.01 1.01 64 1014.9
20260508132903 68 11 7.0 12.0 0.00 1.01 1.01 62 1014.8
20260508132726 68 63 6.0 14.0 0.00 1.01 1.01 61 1014.8